Flag for USA

Past Weather in Prescott, Arizona, USA — Yesterday and Last 2 Weeks

Now
91 °F

Thundershowers. Sunny.


Feels Like: 87 °F
Forecast: 92 / 72 °F
Wind: 15 mph from Southwest

Location: Love Field

Current Time: Jul 12, 2020 at 5:13:07 pm

Latest Report: Jul 12, 2020 at 4:23 pm


Visibility: 10 mi

Pressure: 30.10 "Hg (25.08 "Hg at 1635m altitude)

Humidity: 19%

Dew Point: 43 °F

Location of PrescottLocation

Past Weather in Prescott — Graph

°F

Prescott Temperature Yesterday

Maximum temperature yesterday: 98 °F (at 1:53 pm)
Minimum temperature yesterday: 69 °F (at 1:53 am)
Average temperature yesterday: 82 °F

High & Low Weather Summary for the Past Weeks

 TemperatureHumidityPressure
High98 °F (Jul 11, 1:53 pm)75% (Jul 4, 4:53 am)30.25 "Hg (Jul 4, 4:53 am)
Low50 °F (Jun 30, 3:53 am)6% (Jul 6, 2:53 pm)29.57 "Hg (Jun 28, 7:53 pm)
Average76 °F27%29.85 "Hg
* Reported Jun 27 4:53 pm — Jul 12 4:00 pm, Prescott. Weather by CustomWeather, © 2020

Note: Actual official high and low records may vary slightly from our data, if they occured in-between our weather recording intervals... More about our weather records

Prescott Weather History for the Previous 24 Hours

Scroll right to see more
 ConditionsComfort  
Time TempWeatherWind HumidityBarometerVisibility
4:00 pm
Sun, Jul 12
93 °FSunny.18 mph18%30.10 "Hg10 mi
3:26 pm97 °FThundershowers. Scattered clouds.10 mph16%30.09 "Hg10 mi
2:53 pm96 °FSunny.9 mph17%29.80 "Hg10 mi
1:53 pm87 °FPartly sunny.13 mph25%29.86 "Hg10 mi
12:53 pm88 °FThundershowers. Passing clouds.18 mph23%29.86 "Hg10 mi
12:22 pm93 °FThundershowers. Sunny.21 mph18%30.15 "Hg10 mi
11:53 am97 °FScattered clouds.No wind13%29.85 "Hg10 mi
10:53 am94 °FSunny.3 mph15%29.88 "Hg10 mi
9:53 am92 °FSunny.No wind18%29.89 "Hg10 mi
8:53 am87 °FSunny.No wind23%29.90 "Hg10 mi
7:53 am81 °FSunny.No wind30%29.90 "Hg10 mi
6:53 am72 °FSunny.5 mph46%29.90 "Hg10 mi
5:53 am66 °FSunny.No wind54%29.91 "Hg10 mi
4:53 am65 °FClear.5 mph59%29.91 "Hg10 mi
3:53 am69 °FClear.10 mph47%29.89 "Hg10 mi
2:53 am69 °FClear.5 mph49%29.90 "Hg10 mi
1:53 am69 °FClear.6 mph55%29.88 "Hg10 mi
12:53 am73 °FClear.5 mph44%29.89 "Hg10 mi
11:53 pm
Sat, Jul 11
73 °FClear.7 mph48%29.90 "Hg10 mi
10:53 pm74 °FClear.10 mph46%29.91 "Hg10 mi
9:53 pm76 °FClear.8 mph39%29.93 "Hg10 mi
8:53 pm78 °FThundershowers. Clear.6 mph31%29.93 "Hg10 mi
7:53 pm84 °FThundershowers. Clear.7 mph22%29.91 "Hg10 mi
6:53 pm91 °FThundershowers. Sunny.5 mph17%29.90 "Hg10 mi
5:53 pm90 °FThundershowers. Sunny.10 mph23%29.91 "Hg10 mi
Weather by CustomWeather, © 2020

See weather overview